QPF
0.00 0.00 0.00 0.00 0.00 0.00 0.00 0.00 0.00 0.00 0.00 0.00 0.00 0.00 0.00 0.00 0.01 0.01 0.02 0.04 0.04 0.04 0.04 0.03 0.02 0.02 0.02 0.01 0.01 0.01 0.02 0.02 0.02 0.02 0.02 0.03 0.05 0.05 0.03 0.03 0.02 0.02 0.02 0.03
0.00 0.00 0.00 0.00 0.00 0.00 0.00 0.00 0.00 0.00 0.00 0.00 0.00 0.00 0.00 0.00 0.00 0.01 0.01 0.02 0.03 0.04 0.04 0.02 0.02 0.02 0.02 0.01 0.01 0.02 0.03 0.02 0.03 0.03 0.03 0.03 0.05 0.06 0.04 0.03 0.02 0.02 0.03 0.03
0.00 0.00 0.00 0.00 0.00 0.00 0.00 0.00 0.00 0.00 0.00 0.00 0.00 0.00 0.00 0.00 0.00 0.01 0.01 0.02 0.01 0.02 0.03 0.03 0.02 0.02 0.02 0.02 0.02 0.02 0.02 0.03 0.04 0.04 0.05 0.06 0.08 0.07 0.05 0.05 0.03 0.03 0.04 0.03
0.00 0.00 0.00 0.00 0.00 0.00 0.00 0.00 0.00 0.00 0.00 0.00 0.01 0.01 0.00 0.00 0.00 0.00 0.01 0.01 0.01 0.01 0.02 0.03 0.02 0.02 0.01 0.01 0.01 0.01 0.01 0.02 0.04 0.05 0.05 0.06 0.08 0.10 0.10 0.07 0.04 0.04 0.04 0.04
0.00 0.00 0.00 0.00 0.00 0.00 0.00 0.00 0.00 0.00 0.00 0.00 0.00 0.01 0.00 0.00 0.00 0.01 0.01 0.00 0.01 0.01 0.01 0.01 0.01 0.02 0.02 0.01 0.01 0.01 0.02 0.02 0.02 0.03 0.03 0.04 0.06 0.08 0.10 0.09 0.06 0.04 0.04 0.04
0.00 0.00 0.00 0.00 0.00 0.00 0.00 0.00 0.00 0.00 0.00 0.00 0.00 0.00 0.00 0.01 0.00 0.00 0.00 0.00 0.00 0.01 0.01 0.02 0.02 0.01 0.01 0.01 0.00 0.01 0.01 0.01 0.02 0.03 0.03 0.03 0.06 0.09 0.09 0.06 0.06 0.05 0.04 0.03
0.01 0.00 0.00 0.00 0.00 0.00 0.00 0.01 0.02 0.01 0.01 0.00 0.00 0.00 0.00 0.00 0.00 0.00 0.00 0.00 0.00 0.00 0.01 0.01 0.01 0.01 0.01 0.01 0.01 0.01 0.01 0.02 0.02 0.04 0.03 0.03 0.03 0.03 0.04 0.05 0.06 0.05 0.04 0.03
0.01 0.01 0.01 0.00 0.00 0.00 0.00 0.01 0.02 0.01 0.01 0.00 0.00 0.00 0.00 0.00 0.01 0.01 0.00 0.00 0.01 0.01 0.00 0.00 0.01 0.01 0.01 0.01 0.01 0.01 0.02 0.02 0.02 0.02 0.03 0.03 0.01 0.01 0.02 0.03 0.05 0.06 0.06 0.05
0.01 0.01 0.00 0.01 0.01 0.01 0.01 0.01 0.01 0.01 0.01 0.01 0.00 0.00 0.00 0.00 0.00 0.00 0.01 0.01 0.01 0.01 0.00 0.01 0.01 0.01 0.01 0.01 0.01 0.02 0.02 0.02 0.02 0.02 0.02 0.02 0.01 0.01 0.02 0.03 0.04 0.06 0.07 0.06
0.01 0.01 0.01 0.01 0.01 0.02 0.01 0.01 0.01 0.02 0.01 0.01 0.00 0.00 0.00 0.00 0.01 0.01 0.01 0.01 0.01 0.01 0.01 0.01 0.01 0.01 0.01 0.01 0.01 0.01 0.02 0.02 0.02 0.01 0.01 0.01 0.01 0.02 0.02 0.01 0.02 0.03 0.04 0.05
0.02 0.02 0.01 0.00 0.01 0.01 0.01 0.01 0.01 0.02 0.01 0.01 0.01 0.00 0.00 0.00 0.01 0.01 0.01 0.01 0.01 0.02 0.01 0.01 0.02 0.01 0.01 0.01 0.01 0.01 0.01 0.02 0.02 0.02 0.02 0.01 0.01 0.01 0.00 0.01 0.01 0.01 0.03 0.04
0.02 0.02 0.02 0.00 0.00 0.00 0.00 0.01 0.01 0.02 0.01 0.01 0.01 0.01 0.00 0.00 0.01 0.02 0.02 0.01 0.01 0.02 0.01 0.01 0.01 0.01 0.01 0.01 0.01 0.01 0.01 0.01 0.02 0.02 0.03 0.02 0.01 0.01 0.00 0.00 0.01 0.01 0.02 0.03
0.01 0.02 0.02 0.01 0.01 0.01 0.01 0.01 0.01 0.01 0.01 0.01 0.01 0.01 0.01 0.00 0.01 0.02 0.03 0.02 0.02 0.02 0.01 0.01 0.01 0.01 0.01 0.01 0.01 0.01 0.01 0.01 0.02 0.02 0.02 0.02 0.01 0.01 0.01 0.01 0.01 0.02 0.02 0.04
0.01 0.01 0.02 0.01 0.02 0.01 0.01 0.01 0.01 0.01 0.02 0.02 0.01 0.01 0.00 0.00 0.01 0.02 0.03 0.02 0.02 0.02 0.02 0.01 0.01 0.01 0.01 0.00 0.01 0.01 0.01 0.01 0.01 0.02 0.02 0.02 0.02 0.02 0.02 0.02 0.02 0.03 0.05 0.06
0.01 0.01 0.01 0.01 0.01 0.01 0.02 0.02 0.02 0.01 0.01 0.01 0.01 0.00 0.00 0.00 0.01 0.01 0.02 0.02 0.02 0.03 0.02 0.01 0.01 0.01 0.01 0.00 0.01 0.01 0.01 0.01 0.01 0.01 0.01 0.02 0.03 0.04 0.04 0.03 0.03 0.03 0.04 0.04
0.02 0.02 0.02 0.02 0.02 0.03 0.03 0.02 0.03 0.02 0.02 0.02 0.01 0.01 0.00 0.00 0.01 0.01 0.01 0.01 0.02 0.03 0.02 0.02 0.01 0.01 0.01 0.01 0.01 0.01 0.01 0.01 0.01 0.01 0.02 0.03 0.03 0.04 0.05 0.06 0.05 0.05 0.04 0.04
0.01 0.02 0.02 0.03 0.03 0.03 0.03 0.02 0.02 0.03 0.03 0.03 0.02 0.01 0.01 0.01 0.01 0.01 0.01 0.01 0.02 0.03 0.05 0.03 0.02 0.01 0.01 0.01 0.01 0.01 0.01 0.00 0.01 0.02 0.02 0.02 0.02 0.03 0.05 0.06 0.06 0.06 0.06 0.05
0.00 0.01 0.02 0.03 0.04 0.05 0.05 0.02 0.02 0.02 0.03 0.03 0.02 0.01 0.01 0.01 0.01 0.01 0.01 0.01 0.01 0.01 0.03 0.02 0.02 0.02 0.03 0.02 0.02 0.01 0.01 0.01 0.01 0.02 0.01 0.01 0.02 0.02 0.03 0.06 0.07 0.07 0.08 0.07
0.00 0.00 0.02 0.03 0.04 0.05 0.05 0.04 0.03 0.04 0.04 0.03 0.01 0.01 0.00 0.01 0.02 0.02 0.01 0.01 0.01 0.01 0.03 0.03 0.02 0.01 0.02 0.03 0.04 0.04 0.02 0.02 0.02 0.02 0.01 0.01 0.01 0.01 0.02 0.03 0.05 0.06 0.08 0.10
0.00 0.00 0.01 0.03 0.04 0.06 0.06 0.03 0.03 0.03 0.04 0.03 0.03 0.03 0.01 0.01 0.02 0.02 0.01 0.01 0.02 0.02 0.03 0.03 0.02 0.01 0.01 0.03 0.04 0.05 0.04 0.03 0.03 0.02 0.02 0.02 0.02 0.03 0.03 0.03 0.04 0.05 0.05 0.09
0.01 0.01 0.01 0.02 0.04 0.05 0.05 0.03 0.03 0.05 0.05 0.04 0.05 0.04 0.03 0.02 0.02 0.02 0.02 0.02 0.04 0.05 0.04 0.03 0.02 0.02 0.02 0.02 0.03 0.04 0.04 0.03 0.02 0.02 0.02 0.02 0.03 0.03 0.04 0.04 0.05 0.06 0.06 0.07
0.02 0.02 0.03 0.04 0.05 0.07 0.06 0.04 0.05 0.05 0.04 0.05 0.05 0.04 0.03 0.02 0.01 0.02 0.03 0.03 0.05 0.06 0.04 0.04 0.02 0.02 0.01 0.01 0.02 0.03 0.03 0.02 0.02 0.02 0.02 0.02 0.02 0.03 0.04 0.06 0.06 0.06 0.07 0.07
0.04 0.04 0.04 0.04 0.05 0.06 0.06 0.06 0.06 0.05 0.05 0.04 0.04 0.04 0.03 0.02 0.01 0.02 0.03 0.04 0.04 0.04 0.04 0.04 0.02 0.02 0.02 0.02 0.02 0.01 0.01 0.01 0.02 0.02 0.02 0.03 0.03 0.03 0.03 0.03 0.04 0.05 0.05 0.05
0.05 0.04 0.04 0.06 0.08 0.07 0.07 0.10 0.09 0.06 0.04 0.02 0.02 0.03 0.03 0.03 0.02 0.02 0.03 0.05 0.05 0.04 0.04 0.04 0.04 0.03 0.02 0.02 0.01 0.01 0.01 0.02 0.03 0.03 0.04 0.04 0.04 0.03 0.05 0.05 0.05 0.05 0.06 0.05
0.04 0.04 0.05 0.06 0.07 0.06 0.06 0.07 0.07 0.05 0.03 0.01 0.01 0.03 0.03 0.03 0.03 0.03 0.03 0.05 0.04 0.04 0.05 0.06 0.09 0.07 0.06 0.04 0.03 0.02 0.02 0.02 0.03 0.04 0.04 0.04 0.04 0.04 0.06 0.06 0.05 0.04 0.05 0.06
0.02 0.03 0.04 0.04 0.05 0.05 0.04 0.04 0.05 0.04 0.02 0.01 0.02 0.03 0.01 0.02 0.03 0.03 0.04 0.04 0.04 0.05 0.06 0.05 0.09 0.08 0.06 0.07 0.06 0.05 0.05 0.05 0.03 0.03 0.03 0.04 0.04 0.05 0.04 0.03 0.03 0.02 0.02 0.02
MSLP
1008.63 1009.01 1009.27 1009.41 1009.47 1009.46 1009.41 1009.31 1009.16 1008.93 1008.61 1008.19 1007.67 1007.08 1006.47 1005.91 1005.46 1005.17 1005.07 1005.18 1005.48 1005.92 1006.44 1006.98 1007.48 1007.89 1008.19 1008.38 1008.47 1008.50 1008.49 1008.50 1008.55 1008.69 1008.91 1009.23 1009.65 1010.15 1010.70 1011.27 1011.82 1012.33 1012.78 1013.17
1008.51 1008.81 1009.00 1009.12 1009.19 1009.24 1009.28 1009.30 1009.26 1009.15 1008.92 1008.56 1008.07 1007.49 1006.86 1006.25 1005.75 1005.40 1005.25 1005.31 1005.57 1005.99 1006.50 1007.05 1007.57 1008.02 1008.36 1008.59 1008.72 1008.77 1008.78 1008.79 1008.83 1008.93 1009.11 1009.39 1009.77 1010.22 1010.73 1011.27 1011.80 1012.29 1012.72 1013.09
1008.17 1008.38 1008.52 1008.63 1008.75 1008.90 1009.06 1009.22 1009.33 1009.35 1009.23 1008.96 1008.52 1007.96 1007.33 1006.69 1006.13 1005.71 1005.48 1005.45 1005.63 1005.98 1006.44 1006.96 1007.48 1007.94 1008.33 1008.61 1008.81 1008.92 1008.98 1009.02 1009.08 1009.18 1009.35 1009.60 1009.93 1010.35 1010.82 1011.33 1011.83 1012.29 1012.70 1013.04
1007.59 1007.73 1007.85 1007.98 1008.17 1008.42 1008.72 1009.03 1009.31 1009.48 1009.50 1009.33 1008.98 1008.47 1007.85 1007.19 1006.58 1006.09 1005.76 1005.63 1005.69 1005.93 1006.30 1006.75 1007.23 1007.70 1008.11 1008.45 1008.72 1008.92 1009.06 1009.17 1009.27 1009.41 1009.58 1009.82 1010.13 1010.52 1010.95 1011.41 1011.88 1012.31 1012.69 1013.00
1006.83 1006.92 1007.03 1007.20 1007.46 1007.82 1008.26 1008.73 1009.16 1009.49 1009.65 1009.62 1009.37 1008.94 1008.36 1007.72 1007.09 1006.54 1006.12 1005.87 1005.80 1005.90 1006.15 1006.50 1006.91 1007.35 1007.77 1008.16 1008.50 1008.79 1009.02 1009.22 1009.40 1009.58 1009.78 1010.02 1010.32 1010.67 1011.06 1011.48 1011.91 1012.31 1012.66 1012.95
1005.98 1006.04 1006.14 1006.35 1006.68 1007.14 1007.69 1008.29 1008.87 1009.34 1009.64 1009.74 1009.63 1009.30 1008.82 1008.24 1007.62 1007.05 1006.56 1006.21 1006.01 1005.97 1006.08 1006.30 1006.62 1006.99 1007.40 1007.81 1008.20 1008.57 1008.89 1009.18 1009.43 1009.66 1009.90 1010.14 1010.42 1010.73 1011.09 1011.46 1011.84 1012.21 1012.53 1012.80
1005.15 1005.18 1005.29 1005.52 1005.89 1006.41 1007.03 1007.72 1008.39 1008.98 1009.41 1009.66 1009.69 1009.52 1009.17 1008.70 1008.16 1007.61 1007.10 1006.69 1006.38 1006.21 1006.16 1006.25 1006.44 1006.73 1007.08 1007.48 1007.90 1008.31 1008.70 1009.05 1009.36 1009.63 1009.88 1010.13 1010.38 1010.65 1010.96 1011.28 1011.61 1011.94 1012.24 1012.49
1004.44 1004.45 1004.55 1004.78 1005.15 1005.67 1006.31 1007.02 1007.74 1008.41 1008.96 1009.34 1009.54 1009.55 1009.39 1009.08 1008.67 1008.21 1007.74 1007.30 1006.93 1006.65 1006.47 1006.41 1006.47 1006.64 1006.91 1007.26 1007.66 1008.07 1008.48 1008.86 1009.20 1009.48 1009.73 1009.95 1010.17 1010.39 1010.64 1010.91 1011.19 1011.47 1011.74 1011.98
1003.93 1003.92 1003.99 1004.17 1004.49 1004.95 1005.55 1006.23 1006.95 1007.66 1008.29 1008.81 1009.19 1009.41 1009.47 1009.37 1009.16 1008.84 1008.47 1008.06 1007.67 1007.31 1007.02 1006.83 1006.75 1006.79 1006.95 1007.21 1007.54 1007.91 1008.29 1008.65 1008.97 1009.24 1009.46 1009.64 1009.80 1009.97 1010.15 1010.35 1010.58 1010.82 1011.06 1011.29
1003.67 1003.62 1003.62 1003.72 1003.94 1004.30 1004.79 1005.39 1006.07 1006.79 1007.49 1008.14 1008.69 1009.13 1009.44 1009.60 1009.61 1009.50 1009.26 1008.94 1008.57 1008.18 1007.81 1007.50 1007.29 1007.20 1007.22 1007.36 1007.58 1007.87 1008.18 1008.48 1008.75 1008.96 1009.12 1009.24 1009.34 1009.44 1009.55 1009.69 1009.86 1010.06 1010.28 1010.49
1003.64 1003.53 1003.45 1003.43 1003.52 1003.73 1004.09 1004.58 1005.20 1005.89 1006.65 1007.41 1008.15 1008.81 1009.37 1009.80 1010.06 1010.17 1010.11 1009.91 1009.59 1009.20 1008.79 1008.40 1008.07 1007.84 1007.73 1007.72 1007.82 1007.99 1008.19 1008.40 1008.57 1008.71 1008.80 1008.85 1008.87 1008.90 1008.94 1009.02 1009.14 1009.31 1009.49 1009.70
1003.81 1003.62 1003.43 1003.29 1003.23 1003.30 1003.52 1003.89 1004.43 1005.11 1005.90 1006.77 1007.67 1008.54 1009.34 1010.01 1010.52 1010.85 1010.97 1010.90 1010.67 1010.31 1009.87 1009.42 1009.00 1008.66 1008.41 1008.27 1008.23 1008.27 1008.35 1008.44 1008.51 1008.55 1008.56 1008.53 1008.49 1008.45 1008.44 1008.46 1008.54 1008.66 1008.83 1009.02
1004.09 1003.83 1003.55 1003.29 1003.11 1003.05 1003.14 1003.42 1003.90 1004.56 1005.38 1006.34 1007.37 1008.41 1009.41 1010.29 1011.01 1011.52 1011.81 1011.87 1011.72 1011.41 1010.97 1010.49 1010.00 1009.57 1009.21 1008.95 1008.78 1008.69 1008.64 1008.61 1008.58 1008.53 1008.45 1008.35 1008.25 1008.15 1008.09 1008.07 1008.11 1008.21 1008.35 1008.53
1004.45 1004.13 1003.78 1003.45 1003.18 1003.03 1003.05 1003.26 1003.70 1004.35 1005.20 1006.21 1007.33 1008.50 1009.63 1010.66 1011.53 1012.18 1012.59 1012.75 1012.68 1012.41 1012.00 1011.51 1010.99 1010.49 1010.06 1009.70 1009.42 1009.21 1009.05 1008.92 1008.78 1008.64 1008.49 1008.33 1008.17 1008.03 1007.92 1007.87 1007.88 1007.94 1008.06 1008.23
1004.86 1004.52 1004.14 1003.79 1003.50 1003.32 1003.31 1003.50 1003.91 1004.56 1005.42 1006.45 1007.61 1008.82 1010.02 1011.12 1012.05 1012.78 1013.26 1013.49 1013.48 1013.26 1012.88 1012.40 1011.88 1011.36 1010.87 1010.45 1010.09 1009.79 1009.53 1009.30 1009.08 1008.86 1008.64 1008.42 1008.21 1008.03 1007.89 1007.80 1007.78 1007.81 1007.91 1008.06
1005.32 1005.01 1004.67 1004.35 1004.10 1003.95 1003.96 1004.16 1004.57 1005.21 1006.05 1007.06 1008.19 1009.37 1010.55 1011.63 1012.56 1013.29 1013.79 1014.04 1014.07 1013.89 1013.56 1013.11 1012.61 1012.09 1011.60 1011.14 1010.73 1010.36 1010.03 1009.73 1009.43 1009.14 1008.86 1008.58 1008.33 1008.10 1007.92 1007.80 1007.74 1007.74 1007.81 1007.93
1005.85 1005.63 1005.39 1005.17 1005.01 1004.94 1005.00 1005.23 1005.65 1006.26 1007.05 1007.98 1009.01 1010.10 1011.17 1012.15 1013.00 1013.67 1014.13 1014.38 1014.43 1014.29 1014.00 1013.61 1013.15 1012.67 1012.19 1011.73 1011.30 1010.89 1010.51 1010.14 1009.78 1009.43 1009.09 1008.76 1008.45 1008.17 1007.95 1007.78 1007.68 1007.64 1007.67 1007.76
1006.51 1006.42 1006.33 1006.26 1006.23 1006.26 1006.40 1006.66 1007.07 1007.62 1008.31 1009.11 1009.99 1010.90 1011.80 1012.62 1013.33 1013.90 1014.29 1014.51 1014.55 1014.45 1014.22 1013.89 1013.50 1013.08 1012.65 1012.21 1011.78 1011.35 1010.94 1010.52 1010.11 1009.70 1009.30 1008.91 1008.54 1008.22 1007.94 1007.71 1007.56 1007.47 1007.45 1007.49
1007.30 1007.39 1007.48 1007.57 1007.68 1007.83 1008.04 1008.32 1008.69 1009.16 1009.71 1010.34 1011.01 1011.71 1012.39 1013.01 1013.55 1013.97 1014.28 1014.45 1014.50 1014.43 1014.26 1014.01 1013.70 1013.36 1012.98 1012.58 1012.17 1011.75 1011.31 1010.87 1010.41 1009.96 1009.50 1009.06 1008.64 1008.25 1007.91 1007.63 1007.41 1007.26 1007.18 1007.18
1008.25 1008.52 1008.78 1009.03 1009.28 1009.52 1009.77 1010.05 1010.36 1010.71 1011.10 1011.53 1011.98 1012.44 1012.88 1013.29 1013.65 1013.95 1014.16 1014.29 1014.34 1014.31 1014.21 1014.04 1013.82 1013.55 1013.24 1012.90 1012.52 1012.11 1011.67 1011.21 1010.73 1010.23 1009.74 1009.25 1008.78 1008.34 1007.95 1007.61 1007.33 1007.11 1006.98 1006.93
1009.34 1009.76 1010.17 1010.55 1010.89 1011.19 1011.46 1011.70 1011.93 1012.15 1012.37 1012.60 1012.83 1013.06 1013.29 1013.51 1013.71 1013.88 1014.01 1014.11 1014.17 1014.18 1014.14 1014.05 1013.92 1013.73 1013.49 1013.20 1012.86 1012.47 1012.05 1011.58 1011.09 1010.58 1010.07 1009.56 1009.06 1008.58 1008.15 1007.76 1007.42 1007.16 1006.97 1006.86
1010.54 1011.07 1011.57 1012.01 1012.40 1012.72 1012.97 1013.15 1013.28 1013.38 1013.44 1013.49 1013.54 1013.58 1013.63 1013.70 1013.77 1013.85 1013.94 1014.02 1014.09 1014.14 1014.17 1014.15 1014.08 1013.96 1013.78 1013.54 1013.24 1012.88 1012.48 1012.03 1011.55 1011.05 1010.54 1010.03 1009.53 1009.05 1008.59 1008.18 1007.81 1007.51 1007.28 1007.11
1011.82 1012.38 1012.90 1013.35 1013.73 1014.01 1014.21 1014.33 1014.37 1014.35 1014.29 1014.21 1014.12 1014.03 1013.96 1013.93 1013.92 1013.95 1014.01 1014.09 1014.19 1014.27 1014.34 1014.38 1014.36 1014.29 1014.15 1013.95 1013.68 1013.35 1012.98 1012.56 1012.11 1011.65 1011.17 1010.69 1010.22 1009.76 1009.32 1008.91 1008.54 1008.22 1007.96 1007.76
1013.15 1013.66 1014.13 1014.52 1014.82 1015.04 1015.17 1015.21 1015.17 1015.08 1014.94 1014.78 1014.61 1014.46 1014.33 1014.25 1014.21 1014.23 1014.29 1014.38 1014.49 1014.61 1014.71 1014.77 1014.79 1014.74 1014.62 1014.44 1014.19 1013.89 1013.54 1013.16 1012.76 1012.34 1011.92 1011.50 1011.09 1010.68 1010.29 1009.92 1009.57 1009.26 1008.99 1008.76
1014.50 1014.90 1015.24 1015.51 1015.71 1015.83 1015.87 1015.84 1015.75 1015.61 1015.43 1015.25 1015.06 1014.90 1014.77 1014.69 1014.66 1014.69 1014.76 1014.87 1015.01 1015.14 1015.25 1015.32 1015.34 1015.29 1015.17 1014.99 1014.75 1014.46 1014.13 1013.79 1013.44 1013.08 1012.73 1012.39 1012.05 1011.73 1011.41 1011.10 1010.80 1010.52 1010.26 1010.03
1015.86 1016.09 1016.26 1016.37 1016.43 1016.43 1016.38 1016.29 1016.16 1016.00 1015.83 1015.66 1015.50 1015.37 1015.27 1015.23 1015.23 1015.29 1015.39 1015.52 1015.66 1015.80 1015.91 1015.97 1015.97 1015.90 1015.76 1015.56 1015.31 1015.02 1014.71 1014.39 1014.08 1013.78 1013.49 1013.23 1012.98 1012.74 1012.51 1012.28 1012.05 1011.83 1011.60 1011.39
Thickness
5755 5752 5752 5760 5765 5766 5764 5760 5758 5763 5771 5765 5762 5764 5770 5776 5776 5775 5775 5776 5775 5775 5777 5777 5775 5774 5771 5767 5764 5760 5757 5753 5751 5748 5745 5741 5739 5738 5737 5735 5732 5730 5728 5727
5743 5745 5759 5763 5760 5757 5755 5752 5755 5759 5765 5761 5758 5760 5769 5772 5772 5773 5772 5771 5772 5773 5772 5771 5770 5769 5767 5764 5761 5757 5754 5752 5749 5746 5743 5739 5737 5735 5734 5732 5728 5726 5725 5723
5741 5752 5758 5751 5747 5745 5748 5750 5753 5752 5756 5760 5754 5753 5762 5769 5771 5771 5771 5772 5772 5770 5769 5768 5767 5766 5764 5761 5758 5756 5752 5749 5746 5744 5741 5737 5734 5731 5729 5727 5725 5723 5721 5720
5743 5751 5747 5744 5744 5746 5742 5756 5752 5749 5745 5749 5751 5741 5754 5763 5761 5763 5766 5768 5768 5769 5768 5767 5765 5763 5761 5759 5757 5754 5750 5746 5743 5740 5738 5734 5729 5726 5723 5722 5722 5720 5718 5716
5738 5744 5741 5739 5746 5748 5748 5755 5750 5748 5744 5743 5749 5741 5751 5760 5753 5757 5761 5762 5764 5765 5765 5763 5762 5760 5759 5757 5754 5751 5747 5743 5739 5737 5734 5730 5727 5724 5721 5718 5716 5715 5715 5713
5741 5748 5746 5746 5750 5749 5748 5745 5743 5744 5744 5728 5744 5739 5741 5754 5753 5755 5757 5758 5758 5759 5759 5759 5758 5757 5755 5754 5751 5747 5742 5738 5736 5733 5730 5726 5722 5719 5716 5713 5712 5712 5712 5710
5729 5737 5744 5746 5738 5740 5740 5731 5720 5720 5723 5730 5747 5737 5740 5754 5757 5755 5754 5753 5753 5753 5753 5752 5751 5750 5749 5747 5745 5743 5738 5734 5731 5729 5726 5723 5719 5716 5713 5710 5709 5708 5707 5705
5718 5721 5735 5739 5737 5734 5735 5734 5720 5714 5721 5734 5737 5730 5744 5753 5754 5755 5753 5750 5748 5748 5749 5748 5747 5745 5744 5742 5740 5737 5734 5730 5728 5725 5722 5719 5716 5715 5713 5709 5707 5705 5703 5702
5719 5719 5735 5737 5740 5737 5730 5732 5742 5729 5728 5724 5730 5735 5741 5748 5745 5746 5746 5744 5742 5743 5744 5743 5742 5741 5739 5737 5734 5733 5730 5726 5724 5721 5718 5715 5713 5711 5710 5707 5704 5703 5701 5700
5720 5710 5724 5731 5734 5733 5737 5735 5727 5719 5708 5709 5722 5726 5733 5734 5735 5739 5739 5738 5738 5739 5739 5737 5737 5735 5734 5732 5729 5728 5725 5722 5720 5717 5715 5713 5709 5707 5705 5704 5702 5700 5697 5695
5717 5705 5712 5718 5716 5720 5721 5720 5721 5723 5724 5713 5711 5726 5742 5735 5733 5733 5734 5735 5734 5733 5732 5731 5731 5729 5728 5726 5724 5721 5719 5717 5716 5714 5711 5709 5706 5704 5702 5700 5699 5696 5693 5691
5709 5706 5703 5712 5724 5729 5724 5721 5718 5708 5709 5716 5717 5720 5738 5734 5731 5729 5727 5727 5728 5727 5727 5726 5725 5723 5721 5720 5718 5716 5714 5713 5711 5710 5707 5704 5702 5700 5698 5697 5695 5692 5690 5687
5701 5694 5688 5697 5706 5713 5713 5717 5720 5718 5714 5712 5710 5715 5728 5726 5723 5722 5720 5720 5720 5719 5719 5719 5717 5715 5714 5713 5712 5711 5709 5708 5707 5706 5704 5700 5698 5696 5694 5693 5691 5688 5685 5683
5696 5691 5691 5691 5702 5708 5704 5708 5713 5711 5706 5708 5713 5714 5716 5715 5714 5714 5714 5713 5713 5711 5711 5710 5709 5708 5707 5706 5705 5704 5703 5702 5701 5700 5698 5696 5693 5691 5690 5688 5686 5684 5681 5678
5688 5685 5691 5697 5703 5705 5701 5702 5705 5704 5708 5706 5711 5709 5706 5706 5707 5707 5707 5706 5704 5702 5701 5701 5701 5701 5701 5700 5698 5698 5698 5697 5695 5694 5692 5690 5689 5687 5685 5683 5681 5679 5677 5675
5678 5677 5682 5684 5694 5695 5692 5695 5697 5697 5700 5701 5702 5699 5704 5702 5703 5700 5699 5698 5696 5694 5694 5694 5695 5694 5694 5693 5692 5692 5691 5690 5689 5688 5687 5686 5685 5682 5680 5678 5676 5675 5673 5671
5671 5668 5669 5675 5685 5685 5679 5686 5688 5688 5690 5690 5687 5690 5692 5691 5691 5691 5690 5690 5690 5688 5688 5688 5688 5688 5688 5687 5686 5686 5685 5685 5684 5683 5683 5682 5680 5678 5676 5675 5672 5670 5669 5667
5660 5661 5666 5671 5670 5660 5676 5686 5687 5682 5680 5682 5682 5683 5684 5684 5687 5688 5687 5684 5683 5683 5681 5682 5682 5682 5682 5682 5682 5681 5682 5681 5679 5678 5677 5676 5675 5674 5672 5670 5668 5666 5665 5663
5657 5655 5659 5662 5662 5666 5670 5673 5674 5671 5668 5672 5674 5675 5677 5680 5681 5682 5681 5680 5678 5677 5676 5676 5677 5677 5677 5677 5677 5676 5675 5675 5675 5674 5673 5672 5671 5669 5667 5666 5664 5663 5661 5659
5652 5652 5652 5654 5651 5652 5658 5668 5673 5668 5658 5667 5668 5667 5669 5670 5670 5673 5674 5674 5674 5673 5672 5671 5672 5673 5672 5671 5671 5670 5669 5669 5669 5670 5669 5669 5667 5665 5664 5662 5661 5659 5657 5656
5639 5641 5642 5644 5643 5645 5654 5659 5661 5647 5653 5660 5662 5662 5661 5662 5664 5665 5667 5667 5667 5667 5666 5666 5666 5666 5666 5665 5664 5664 5665 5665 5666 5666 5666 5665 5663 5662 5661 5659 5657 5656 5654 5653
5632 5634 5632 5634 5632 5632 5645 5647 5643 5643 5650 5653 5654 5655 5655 5657 5658 5658 5659 5659 5659 5660 5660 5660 5659 5660 5660 5660 5659 5659 5659 5660 5662 5662 5661 5660 5659 5659 5658 5655 5654 5653 5651 5650
5625 5627 5629 5626 5627 5632 5637 5638 5639 5640 5641 5643 5646 5648 5649 5649 5650 5651 5651 5651 5652 5653 5653 5653 5653 5652 5653 5654 5654 5654 5654 5655 5656 5656 5655 5655 5655 5655 5654 5652 5651 5651 5649 5650
5618 5621 5621 5619 5623 5627 5628 5630 5631 5633 5635 5638 5640 5642 5643 5643 5643 5643 5645 5644 5645 5645 5646 5646 5646 5646 5647 5648 5649 5649 5650 5650 5650 5650 5650 5651 5651 5650 5649 5649 5649 5649 5648 5648
5609 5610 5611 5612 5615 5618 5620 5622 5625 5627 5630 5632 5634 5636 5637 5637 5637 5637 5637 5637 5637 5637 5638 5638 5638 5639 5640 5642 5643 5644 5645 5644 5645 5645 5646 5647 5647 5646 5645 5645 5644 5645 5644 5644
5601 5601 5602 5605 5608 5609 5611 5617 5620 5621 5623 5626 5627 5628 5631 5631 5631 5631 5630 5630 5629 5629 5629 5630 5631 5632 5634 5636 5637 5638 5639 5639 5639 5640 5641 5642 5642 5642 5643 5642 5641 5637 5637 5636